EW3506 Weather Reports


time (UTC)temp
C
wind
direction
speed
KPH
gust
KPH
rain 1hr
cm
rain 24hr
cm
rain mn
cm
humidity
%
barometer
mb
20260906130004 19 0.0 0.0 0.00 0.00 0.00 97 1015.6
20260906124502 19 0.0 0.0 0.00 0.00 0.00 97 1015.5
20260906123001 18 0.0 0.0 0.00 0.00 0.00 97 1015.4
20260906121601 18 0.0 0.0 0.00 0.00 0.00 97 1015.5
20260906120059 18 0.0 0.0 0.00 0.00 0.00 97 1015.0
20260906114555 18 0.0 0.0 0.00 0.00 0.00 97 1014.8
20260906113055 18 0.0 0.0 0.00 0.00 0.00 97 1014.7
20260906111608 18 0.0 0.0 0.00 0.00 0.00 96 1014.3
20260906110053 18 0.0 0.0 0.00 0.00 0.00 96 1014.3
20260906104551 18 0.0 0.0 0.00 0.00 0.00 96 1014.2
20260906103048 18 0.0 0.0 0.00 0.00 0.00 96 1014.0
20260906101546 18 0.0 0.0 0.00 0.00 0.00 96 1013.9
20260906100052 18 0.0 0.0 0.00 0.00 0.00 96 1013.8
20260906094547 18 0.0 0.0 0.00 0.00 0.00 96 1013.6
20260906093042 18 0.0 0.0 0.00 0.00 0.00 95 1013.6
20260906091544 19 0.0 0.0 0.00 0.00 0.00 95 1013.6
20260906090040 19 0.0 0.0 0.00 0.00 0.00 95 1013.6
20260906084539 19 0.0 0.0 0.00 0.00 0.00 95 1013.5
20260906083038 19 0.0 0.0 0.00 0.00 0.00 95 1013.4
20260906081536 20 0.0 0.0 0.00 0.00 0.00 94 1013.6
20260906080037 20 0.0 0.0 0.00 0.00 0.00 94 1013.6
20260906074536 20 0.0 0.0 0.00 0.00 0.00 94 1013.8
20260906073033 20 0.0 0.0 0.00 0.00 0.00 93 1013.7
20260906071531 20 0.0 0.0 0.00 0.00 0.00 93 1013.7
20260906070031 20 0.0 0.0 0.00 0.00 0.00 92 1013.9
20260906064529 20 0.0 0.0 0.00 0.00 0.00 92 1013.9
20260906063027 20 0.0 0.0 0.00 0.00 0.00 91 1013.7
20260906061524 21 0.0 0.0 0.00 0.00 0.00 91 1013.8
20260906060027 21 0.0 0.0 0.00 0.00 0.00 90 1013.7
20260906054536 21 0.0 0.0 0.00 0.00 0.00 89 1013.6
20260906053017 21 0.0 0.0 0.00 0.00 0.00 89 1013.6
20260906051511 21 0.0 0.0 0.00 0.00 0.00 89 1013.5
20260906050009 21 0.0 0.0 0.00 0.00 0.00 89 1013.2
20260906044508 21 0.0 0.0 0.00 0.00 0.00 89 1013.3
20260906043013 21 0.0 0.0 0.00 0.00 0.00 89 1013.1
20260906041503 21 0.0 0.0 0.00 0.00 0.00 88 1012.9
20260906040001 21 0.0 0.0 0.00 0.00 0.00 88 1012.7
20260906034611 21 0.0 0.0 0.00 0.00 0.00 87 1012.6
20260906033107 21 0.0 0.0 0.00 0.00 0.00 87 1012.6
20260906031559 22 0.0 0.0 0.00 0.00 0.00 87 1012.5
20260906030101 22 0.0 0.0 0.00 0.00 0.00 86 1012.4
20260906024610 22 0.0 0.0 0.00 0.00 0.00 86 1012.5
20260906023102 22 0.0 0.0 0.00 0.00 0.00 85 1012.4
20260906021554 22 0.0 0.0 0.00 0.00 0.00 86 1012.3
20260906020054 22 0.0 0.0 0.00 0.00 0.00 85 1012.3
20260906014553 22 0.0 0.0 0.00 0.00 0.00 85 1012.3
20260906013052 22 0.0 0.0 0.00 0.00 0.00 86 1012.4
20260906011552 22 0.0 0.0 0.00 0.00 0.00 86 1012.4
20260906010050 22 0.0 0.0 0.00 0.00 0.00 86 1012.4
20260906004549 22 0.0 0.0 0.00 0.00 0.00 85 1012.2
20260906003044 23 0.0 0.0 0.00 0.00 0.00 82 1011.9
20260906001542 24 0.0 0.0 0.00 0.00 0.00 82 1011.8
20260906000040 25 0.0 0.0 0.00 0.00 0.00 80 1011.4
20260905234538 26 0.0 0.0 0.00 0.00 0.00 78 1011.1
20260905233140 26 0.0 0.0 0.00 0.00 0.00 78 1011.1
20260905231538 27 0.0 0.0 0.00 0.00 0.00 74 1011.0
20260905230036 27 0.0 0.0 0.00 0.00 0.00 73 1010.9
20260905224606 28 0.0 0.0 0.00 0.00 0.00 70 1010.6
20260905223037 28 0.0 0.0 0.00 0.00 0.00 70 1010.5
20260905221533 28 0.0 0.0 0.00 0.00 0.00 70 1010.4
20260905220032 28 0.0 0.0 0.00 0.00 0.00 72 1010.4
20260905214533 28 0.0 0.0 0.00 0.00 0.00 73 1010.6
20260905213032 28 0.0 0.0 0.00 0.00 0.00 74 1010.7
20260905211541 28 0.0 0.0 0.00 0.00 0.00 74 1010.6
20260905210039 27 0.0 0.0 0.00 0.00 0.00 77 1010.8
20260905204528 27 0.0 0.0 0.00 0.00 0.00 76 1010.9
20260905203027 27 0.0 0.0 0.00 0.00 0.00 78 1011.1
20260905201526 26 0.0 0.0 0.00 0.00 0.00 81 1011.1
20260905200028 26 0.0 0.0 0.00 0.00 0.00 80 1011.1
20260905194524 26 0.0 0.0 0.00 0.00 0.00 79 1011.1
20260905193024 27 0.0 0.0 0.00 0.00 0.00 76 1011.0
20260905191523 27 0.0 0.0 0.00 0.00 0.00 75 1011.0
20260905190023 27 0.0 0.0 0.00 0.00 0.00 76 1011.1
20260905184528 27 0.0 0.0 0.00 0.00 0.00 76 1011.1
20260905183021 28 0.0 0.0 0.00 0.00 0.00 75 1011.2
20260905181519 27 0.0 0.0 0.00 0.00 0.00 77 1011.1
20260905180018 28 0.0 0.0 0.00 0.00 0.00 77 1011.0
20260905174522 27 0.0 0.0 0.00 0.00 0.00 79 1010.9
20260905173017 28 0.0 0.0 0.00 0.00 0.00 78 1011.0
20260905171516 28 0.0 0.0 0.00 0.00 0.00 80 1010.9
20260905170016 27 0.0 0.0 0.00 0.00 0.00 79 1011.0
20260905164516 27 0.0 0.0 0.00 0.00 0.00 80 1011.2
20260905163010 27 0.0 0.0 0.00 0.00 0.00 82 1011.2
20260905161508 26 0.0 0.0 0.00 0.00 0.00 83 1011.2
20260905160004 26 0.0 0.0 0.00 0.00 0.00 83 1011.3
20260905154502 26 0.0 0.0 0.00 0.00 0.00 85 1011.1
20260905153100 26 0.0 0.0 0.00 0.00 0.00 86 1011.0
20260905151559 25 0.0 0.0 0.00 0.00 0.00 87 1011.0
20260905144555 24 0.0 0.0 0.00 0.00 0.00 90 1010.6
20260905143055 23 0.0 0.0 0.00 0.00 0.00 91 1010.5
20260905141554 23 0.0 0.0 0.00 0.00 0.00 93 1010.6
20260905140054 23 0.0 0.0 0.00 0.00 0.00 94 1010.5
20260905134555 23 0.0 0.0 0.00 0.00 0.00 94 1010.3
20260905133056 23 0.0 0.0 0.00 0.00 0.00 94 1010.4
20260905131554 23 0.0 0.0 0.00 0.00 0.00 94 1010.4